Location: Passo di Treia
(43.2833°N, 13.3333°E)
Time: 04:49:07
(UTC+00:00)

Aureole 1 Rocket - Pass Details

Date: 09 December 2019
Orbit: 378 x 1382 km, 73.9° (Epoch: 28 January)

Event Time Altitude Azimuth Distance (km) Brightness Sun altitude
Rises 17:10:46 0° 200° (SSW) 2,261 6.5 -17.5°
Reaches altitude 10° 17:12:44 10° 201° (SSW) 1,390 5.3 -17.8°
Maximum altitude 17:15:40 86° 288° (WNW) 390 2.0 -18.4°
Enters shadow 17:16:10 59° 14° (NNE) 452 2.2 -18.4°
